Skip Page Navigation
NASA JPL Caltech
NASA Logo - Jet Propulsion Laboratory + View the NASA Portal
+ Center for Near-Earth Object Studies
JPL Home Earth Solar System Stars & Galaxies Technology
JPL Solar System Dynamics
BODIES ORBITS EPHEMERIDES TOOLS PHYSICAL DATA DISCOVERY FAQ SITE MAP
IMPORTANT: The SSD Announcement email list is now available. Major changes are coming in the near future, including possible hostname and/or URL changes. To be notified of such changes, subscribe to this email list.

Please visit this page for more details.


JPL Small-Body Database Browser
Search: [ help ]  
14706 (2000 CQ2)
Classification: Main-belt Asteroid          SPK-ID: 2014706
Ephemeris | Orbit Diagram | Orbital Elements | Mission Design | Physical Parameters | Discovery Circumstances ]

[ show orbit diagram ]
Orbital Elements at Epoch 2459000.5 (2020-May-31.0) TDB
Reference: JPL 30 (heliocentric ecliptic J2000)
 Element Value Uncertainty (1-sigma)   Units 
e .1766413723731538 3.8374e-08  
a 2.598637654569981 1.3146e-08 au
q 2.139610732966186 1.0234e-07 au
i 13.90026335627875 4.4629e-06 deg
node 28.26965142290549 1.5657e-05 deg
peri 284.3667026140453 1.9829e-05 deg
M 157.8210972753354 1.1264e-05 deg
tp 2458329.720818325284
(2018-Jul-30.22081833)
4.8228e-05 TDB
period 1530.090143661907
4.19
1.161e-05
3.179e-08
d
yr
n .2352802555399942 1.7853e-09 deg/d
Q 3.057664576173777 1.5468e-08 au
  Orbit Determination Parameters
   # obs. used (total)      3128  
   data-arc span      17798 days (48.73 yr)  
   first obs. used      1971-05-13  
   last obs. used      2020-02-03  
   planetary ephem.      DE431  
   SB-pert. ephem.      SB431-N16  
   condition code      0  
   norm. resid. RMS      .37519  
   source      ORB  
   producer      Otto Matic  
   solution date      2020-Feb-22 21:02:50  

Additional Information
 Earth MOID = 1.17672 au 
 Jupiter MOID = 2.39194 au 
 T_jup = 3.353 
[ hide covariance matrix ]
Orbital Elements at Epoch 2456703.5 (2014-Feb-15.0) TDB
Reference: JPL 30 (heliocentric ecliptic J2000)
 Element Value Uncertainty (1-sigma)   Units 
e .1785211000911615 3.8513e-08  
q 2.133843276573534 1.0287e-07 au
tp 2456799.942649862609
(2014-May-22.44264986)
5.0166e-05 TDB
node 28.31058813574062 1.5667e-05 deg
peri 284.2752658358131 1.9736e-05 deg
i 13.9010963169218 4.4636e-06 deg
  Orbit Determination Parameters
   # obs. used (total)      3128  
   data-arc span      17798 days (48.73 yr)  
   first obs. used      1971-05-13  
   last obs. used      2020-02-03  
   planetary ephem.      DE431  
   SB-pert. ephem.      SB431-N16  
   condition code      0  
   norm. resid. RMS      .37519  
   source      ORB  
   producer      Otto Matic  
   solution date      2020-Feb-22 21:02:50  

Additional Information
 Jupiter MOID = 2.39194 au 
 T_jup = 3.353 
Orbit Covariance (6×6)
  e q tp node peri i
e 1.483233967286832E-15 -3.941015066642087E-15 7.342167695221521E-13 5.369878163626945E-16 1.612291082561639E-13 -5.535065019103521E-15
q -3.941015066642087E-15 1.058317990894471E-14 -2.097883440317052E-12 -8.268050776816344E-16 -4.661709895735975E-13 1.484940284537484E-14
tp 7.342167695221521E-13 -2.097883440317052E-12 2.516665620874415E-9 3.924274163113174E-12 6.150192045101858E-10 -5.797494479418416E-12
node 5.369878163626945E-16 -8.268050776816344E-16 3.924274163113174E-12 2.454570323918043E-10 -2.369774004430649E-10 -1.63809492994181E-11
peri 1.612291082561639E-13 -4.661709895735975E-13 6.150192045101858E-10 -2.369774004430649E-10 3.895291307208911E-10 1.461364084357847E-11
i -5.535065019103521E-15 1.484940284537484E-14 -5.797494479418416E-12 -1.63809492994181E-11 1.461364084357847E-11 1.992388812440157E-11

Ephemeris | Orbit Diagram | Orbital Elements | Mission Design | Physical Parameters | Discovery Circumstances ]

Physical Parameter Table
Parameter Symbol Value Units Sigma Reference Notes
absolute magnitude H 12.8   n/a MPO319268  
diameter diameter 7.134 km 0.052 urn:nasa:pds:neowise_diameters_albedos::2.0[mainbelt] (http://adsabs.harvard.edu/abs/2014ApJ...791..121M)  
geometric albedo albedo 0.289   0.039 urn:nasa:pds:neowise_diameters_albedos::2.0[mainbelt] (http://adsabs.harvard.edu/abs/2012ApJ...759L...8M)  

14706 (2000 CQ2)          Discovered 2000-Feb-04 by Kobayashi, T. at Oizumi
Reference: 20000418/Numbers.arcLast Updated: 2004-04-19

Alternate Designations
 2000 CQ2 = 1985 UX = 1998 XJ69 = 4644 T-1 
Ephemeris | Orbit Diagram | Orbital Elements | Mission Design | Physical Parameters | Discovery Circumstances ]
ABOUT SSD CREDITS/AWARDS PRIVACY/COPYRIGHT GLOSSARY LINKS
FirstGov 2020-Apr-01 06:20 UT
(server date/time)  
NASA Home Page
Site Manager:   Ryan S. Park
Webmaster  Alan B. Chamberlin